sat.trackr.live / text

‹ back to catalog

STARLINK-3004

NORAD 48880 · 2021-059B

PAYLOAD ACTIVE UNKNOWN

§ Identity

Operator
Country
US
Launch date
2021-06-30
Launch site
AFETR
Launch vehicle
Mass (kg)
RCS (m²)

Purposes: comms

External: N2YO · Heavens-Above · Gunter

§ Orbital elements

Epoch: 2026-06-14T04:54:10.962720Z

Period
87.51 min
Inclination
97.6515°
Eccentricity
0.0012540
Mean motion
16.45501633 rev/d
Perigee alt
143.0 km
Apogee alt
159.4 km
Semi-major
6,529.3 km
B*
2.0035e-4
RAAN
297.4767°
Arg perigee
278.9204°
Mean anomaly
81.0678°
Rev number
27,372

§ Raw data

STARLINK-30041 48880U 21059B   26165.20429355  .08792793  27331-5  20035-3 0  99942 48880  97.6515 297.4767 0012540 278.9204  81.0678 16.45501633273724

JSON: /api/v1/satellites/48880 · /tle

For live sub-satellite position, see the globe view (requires WebGL).

§ Visibility from observer

Set your observer location to see the next 7 days of passes ≥ 10°. The values pass through the URL so the page stays shareable.

No JS? Fill the form by hand. The geolocation button needs JavaScript.